Regional Weather Roundup
Issued by NWS

Home | Current Version | Previous Version | Graphics & Text | Print | Product List | Glossary On
Versions: 1 2 3 4 5 6 7 8 9 10 11 12 13 14 15 16 17 18 19 20 21 22 23 24 25 26 27 28 29 30 31 32 33 34 35 36 37 38 39 40 41 42 43 44 45
000
ASUS45 KBOU 252007
RWRCO

WEATHER ROUNDUP FOR COLORADO
NATIONAL WEATHER SERVICE DENVER/BOULDER CO
100 PM MST THU DEC 25 2014

NOTE: "FAIR" INDICATES FEW OR NO CLOUDS BELOW 12000 FEET WITH NO
SIGNIFICANT WEATHER AND/OR OBSTRUCTIONS TO VISIBILITY.

COZ001>005-013-030-031-252100-
...NORTHWEST COLORADO...

CITY           SKY/WX    TMP DP  RH WIND       PRES   REMARKS
CRAIG          CLOUDY    33  29  85 CALM      29.48S
HAYDEN         CLOUDY    28  25  86 CALM      29.47S
MEEKER         CLOUDY    34  26  72 S8        29.47F WCI  27
MOUNT WERNER   NOT AVBL
STEAMBOAT SPGS CLOUDY    26  23  87 CALM      29.46F
WALDEN         CLOUDY    30  21  69 S7        29.46S WCI  23
$$

COZ006>008-011-252100-
...WEST CENTRAL VALLEYS...

CITY           SKY/WX    TMP DP  RH WIND       PRES   REMARKS
GRAND JUNCTION CLOUDY    33  31  92 W10       29.50F WCI  25
MONTROSE       PTSUNNY   41  23  48 S8G17     29.52F
EAGLE          PTSUNNY   30  25  80 CALM      29.51F
RIFLE          LGT SNOW  29  26  89 E5        29.51F FOG     WCI  24
DELTA          CLOUDY    43  26  50 S14       29.53F
NUCLA          PTSUNNY   36  27  69 S25       29.57S
$$

COZ017>023-064>068-252100-
...SOUTHWEST COLORADO...

CITY           SKY/WX    TMP DP  RH WIND       PRES   REMARKS
DURANGO        LGT SNOW  29  27  92 CALM      29.61F FOG
CORTEZ         CLOUDY    38  20  48 SW13      29.57F
PAGOSA SPRINGS CLOUDY    32  18  57 SW5       29.59F WCI  27
TELLURIDE      CLOUDY    28  16  63 SE12G21   29.53F WCI  17
WOLF CREEK PAS SNOW      10   9  92 MISG      29.52F VSB 1/2
$$

COZ009-010-012-014-032>034-037-058>063-252100-
...CENTRAL COLORADO...

CITY           SKY/WX    TMP DP  RH WIND       PRES   REMARKS
ASPEN          SNOW      28  26  92 N5        29.47S VSB 1/2 WCI  23
BUENA VISTA    PTSUNNY   35  16  47 SE14G21   29.48F WCI  25
COPPER MTN     MOSUNNY   25   9  50 S22       29.46F WCI  10
BERTHOUD PASS  HAZE      12   5  73 MISG      29.48S VSB<1/4
COTTONWOOD PAS CLOUDY    30  14  51 CALM      29.49F
GUNNISON       CLOUDY    16  10  79 CALM      29.57F VSB 1/4
KREMMLING      CLOUDY    28  19  69 CALM      29.48F
LEADVILLE      MOSUNNY   21  12  68 S12       29.45F WCI   9
MONARCH PASS   PTSUNNY   18  12  79 SW37G45   29.57F HAZE    WCI  -4
SALIDA         MOSUNNY   37  16  42 S16G23    29.57F
SUNLIGHT       LGT SNOW  23  23 100 MISG      29.49F
WILKERSON PASS SUNNY     27  12  54 SW7       29.52S WCI  19
$$

COZ069>075-252100-
...SAN LUIS VALLEY/SANGRE DE CRISTO MOUNTAINS...

CITY           SKY/WX    TMP DP  RH WIND       PRES   REMARKS
ALAMOSA        SUNNY     37  16  42 SW23G33   29.56F
LA VETA PASS   NOT AVBL
SAGUACHE       SUNNY     27  12  54 NW5       29.57S WCI  21
$$

COZ035-036-038>040-252100-
...NORTHERN COLORADO FRONT RANGE...

CITY           SKY/WX    TMP DP  RH WIND       PRES   REMARKS
DENVER INTL AP PTSUNNY   40  29  64 N15       29.49R
DMNS CITY PARK   N/A     40  27  60 N9G17     29.50R
AURORA         PTSUNNY   39  28  64 NE14G25   29.50R
FRONT RANGE AP NOT AVBL
ERIE MUNI ARPT   N/A     38  31  75 N9        29.51S
BOULDER MUN AP CLOUDY    36  30  80 N7        29.51R
CENTENNIAL     PTSUNNY   37  27  67 N17       29.49R
BROOMFIELD     NOT AVBL
FORT COLLINS   CLOUDY    34  30  86 NE10      29.53S WCI  26
LONGMONT       DRIZZLE   37  34  87 NE5       29.54R
$$

COZ041-046-047-076>085-087-088-252100-
...PIKES PEAK/PALMER DIVIDE AND SOUTHERN FOOTHILLS...

CITY           SKY/WX    TMP DP  RH WIND       PRES   REMARKS
COLO. SPRINGS  MOSUNNY   54   9  16 SW14      29.41S
A. F. ACADEMY  SUNNY     41  18  39 N21       29.43R
ELLICOTT       NOT AVBL
FALCON         MOSUNNY   44  19  37 N20       29.44S
FORT CARSON    SUNNY     51  13  21 SW21G30   29.40R
LIMON          SUNNY     42  25  50 N21       29.43S
MONUMENT HILL  SUNNY     36  21  55 NW15      29.46R
TRINIDAD       SUNNY     48  21  34 W8        29.49F
$$

COZ042>045-048>051-090-091-252100-
...NORTHEAST COLORADO...

CITY           SKY/WX    TMP DP  RH WIND       PRES   REMARKS
GREELEY ARPT   CLOUDY    34  28  80 N17       29.50F WCI  23
AKRON          MOSUNNY   36  29  75 N15       29.48R
BURLINGTON     SUNNY     41  26  55 N10       29.43R
WRAY           SUNNY     43  29  56 N16       29.46R
STERLING       CLOUDY    37  34  87 NE13G21   29.50R
HOLYOKE        SUNNY     43  30  61 N21G26    29.48R
FORT MORGAN    CLOUDY    36  30  79 NE14      29.51R
$$

COZ086-089-092>099-252100-
...SOUTHEAST COLORADO...

CITY           SKY/WX    TMP DP  RH WIND       PRES   REMARKS
PUEBLO         SUNNY     55  15  20 SW29G38   29.40F
LA JUNTA       SUNNY     58  20  22 W29G40    29.44F
LAMAR          SUNNY     60  24  25 W16G22    29.43F
SPRINGFIELD      N/A     61  18  18 SW22G30   29.47F
$$


USA.gov is the U.S. government's official web portal to all federal, state and local government web resources and services.